Weather History for Rochester, MN

Change the Weather History Date:

Tuesday, January 29, 2013

  Actual Average Record
Temperature  
Mean Temperature 34 °F 16 °F  
Max Temperature 38 °F 24 °F 44 °F (1944)
Min Temperature 29 °F 8 °F -33 °F (1951)
Degree Days  
Heating Degree Days 31 49  
Month to date heating degree days 1357 1434  
Since 1 July heating degree days 4075 4512  
Cooling Degree Days 0 0  
Month to date cooling degree days 0 0  
Year to date cooling degree days 0 0  
Moisture  
Dew Point 31 °F    
Average Humidity 87    
Maximum Humidity 96    
Minimum Humidity 78    
Precipitation  
Precipitation 0.11 in 0.02 in 1.20 in (1909)
Month to date precipitation 0.72 0.80  
Year to date precipitation 0.72 0.80  
Snow  
Snow 0.00 in 0.40 in 4.60 in (1947)
Month to date snowfall 0.8 11.2  
Since 1 July snowfall 15.3 30.6  
Snow Depth 0.00 in    
Sea Level Pressure  
Sea Level Pressure 29.59 in    
Wind  
Wind Speed 13 mph (NW)    
Max Wind Speed 26 mph    
Max Gust Speed 32 mph    
Visibility 4 miles    
Events Fog , Rain , Thunderstorm    
T = Trace of Precipitation, MM = Missing Value Source: NWS Daily Summary

Daily Weather History Graph

Daily Weather History Graph

Search for Another Location

Airport:

Trip Planner

Search our weather history database for the weather conditions in past years. The results will help you decide how hot, cold, wet, or windy it might be!

Date:

Astronomy

Jan. 29, 2013 Rise Set
Actual Time 7:30 AM CST 5:16 PM CST
Civil Twilight 6:59 AM CST 5:47 PM CST
Nautical Twilight 6:24 AM CST 6:22 PM CST
Astronomical Twilight 5:50 AM CST 6:56 PM CST
Moon 8:21 PM CST (1/29) 8:20 AM CST (1/29)
Length of Visible Light 10h 48m
Length of Day
9h 46m
Waning Gibbous, 93% of the Moon is Illuminated
Jan 29
Waning Gibbous
Feb 3
Last Quarter
Feb 10
New
Feb 17
First Quarter
Feb 25
Full

Hourly Weather History & Observations

Time (CST) Temp. Windchill Dew Point Humidity Pressure Visibility Wind Dir Wind Speed Gust Speed Precip Events Conditions
12:05 AM 33.8 °F 23.9 °F 32.0 °F 93% 29.58 in 0.2 mi SE 15.0 mph - N/A Fog Fog
12:54 AM 35.1 °F 28.6 °F 34.0 °F 96% 29.61 in 0.2 mi SSE 8.1 mph - N/A Fog Fog
1:19 AM 35.6 °F 29.9 °F 33.8 °F 93% 29.59 in 0.2 mi Variable 6.9 mph - 0.00 in Fog , Rain , Thunderstorm Light Rain
1:28 AM 35.6 °F - 33.8 °F 93% 29.56 in 0.2 mi Calm Calm - 0.02 in Fog , Rain , Thunderstorm Light Thunderstorms and Rain
1:35 AM 35.6 °F 32.8 °F 33.8 °F 93% 29.54 in 0.2 mi SE 3.5 mph - 0.02 in Fog , Rain , Thunderstorm Light Thunderstorms and Rain
1:43 AM 35.6 °F 30.7 °F 33.8 °F 93% 29.54 in 0.2 mi SE 5.8 mph - 0.02 in Fog Fog
1:49 AM 35.6 °F 28.0 °F 32.0 °F 87% 29.53 in 0.5 mi SE 10.4 mph - 0.02 in Fog , Rain , Thunderstorm Heavy Thunderstorms and Rain
1:54 AM 36.0 °F 29.0 °F 33.1 °F 89% 29.57 in 0.5 mi SE 9.2 mph - 0.08 in Fog , Rain , Thunderstorm Light Thunderstorms and Rain
2:16 AM 35.6 °F 30.7 °F 35.6 °F 100% 29.52 in 0.2 mi SSE 5.8 mph - 0.00 in Fog Fog
2:25 AM 35.6 °F - 33.8 °F 93% 29.52 in 0.2 mi Calm Calm - 0.00 in Fog , Rain Light Rain
2:32 AM 35.6 °F - 33.8 °F 93% 29.52 in 0.2 mi Calm Calm - 0.00 in Fog Fog
2:42 AM 35.6 °F - 33.8 °F 93% 29.52 in 0.2 mi Calm Calm - 0.00 in Fog Fog
2:54 AM 36.0 °F - 33.1 °F 89% 29.56 in 0.2 mi Calm Calm - 0.00 in Fog , Rain Light Rain
3:18 AM 37.4 °F 33.8 °F 33.8 °F 87% 29.53 in 0.5 mi West 4.6 mph - 0.01 in Fog , Rain Light Rain
3:54 AM 37.0 °F 34.5 °F 35.1 °F 93% 29.55 in 0.5 mi SW 3.5 mph - 0.02 in Fog , Rain Light Rain
4:43 AM 37.4 °F 32.1 °F 35.6 °F 93% 29.51 in 0.2 mi SSW 6.9 mph - 0.00 in Fog Fog
4:54 AM 37.0 °F 31.0 °F 35.1 °F 93% 29.55 in 0.5 mi SW 8.1 mph - 0.00 in Fog Fog
5:27 AM 37.4 °F 30.3 °F 35.6 °F 93% 29.51 in 0.2 mi West 10.4 mph - 0.01 in Fog Fog
5:42 AM 37.4 °F 29.8 °F 35.6 °F 93% 29.51 in 0.5 mi West 11.5 mph - 0.01 in Fog Fog
5:54 AM 37.0 °F 30.4 °F 35.1 °F 93% 29.55 in 1.0 mi West 9.2 mph - 0.01 in   Mist
6:54 AM 35.1 °F 26.4 °F 32.0 °F 89% 29.57 in 1.2 mi West 12.7 mph - N/A   Overcast
7:04 AM 33.8 °F 26.4 °F 32.0 °F 93% 29.54 in 2.0 mi West 9.2 mph - N/A   Overcast
7:54 AM 34.0 °F 27.2 °F 32.0 °F 92% 29.60 in 2.5 mi WNW 8.1 mph - N/A   Overcast
8:06 AM 33.8 °F 27.0 °F 32.0 °F 93% 29.54 in 4.0 mi NW 8.1 mph - N/A   Overcast
8:54 AM 34.0 °F 25.5 °F 30.9 °F 89% 29.59 in 5.0 mi NW 11.5 mph - N/A   Overcast
9:54 AM 33.1 °F 24.4 °F 30.0 °F 89% 29.64 in 7.0 mi WNW 11.5 mph - N/A   Overcast
10:16 AM 33.8 °F 23.9 °F 30.2 °F 87% 29.60 in 6.0 mi WNW 15.0 mph - N/A   Overcast
10:54 AM 33.1 °F 23.4 °F 30.0 °F 89% 29.66 in 5.0 mi NW 13.8 mph - N/A   Overcast
11:54 AM 34.0 °F 25.5 °F 30.0 °F 85% 29.66 in 6.0 mi NW 11.5 mph - N/A   Overcast
12:54 PM 34.0 °F 25.5 °F 30.0 °F 85% 29.64 in 6.0 mi NNW 11.5 mph - N/A   Overcast
1:54 PM 34.0 °F 24.6 °F 28.9 °F 82% 29.62 in 7.0 mi NNW 13.8 mph - N/A   Overcast
2:54 PM 34.0 °F 24.6 °F 28.9 °F 82% 29.62 in 6.0 mi NNW 13.8 mph - N/A   Haze
3:23 PM 33.8 °F 24.3 °F 28.4 °F 81% 29.59 in 8.0 mi North 13.8 mph - N/A   Overcast
3:54 PM 33.1 °F 23.9 °F 28.9 °F 85% 29.63 in 8.0 mi North 12.7 mph - N/A   Overcast
4:54 PM 33.1 °F 23.9 °F 28.0 °F 82% 29.62 in 10.0 mi North 12.7 mph - N/A   Overcast
5:54 PM 33.1 °F 23.0 °F 28.0 °F 82% 29.65 in 10.0 mi North 15.0 mph - N/A   Overcast
6:54 PM 33.1 °F 22.2 °F 28.9 °F 85% 29.61 in 10.0 mi North 17.3 mph - N/A   Overcast
7:54 PM 33.1 °F 23.0 °F 28.0 °F 82% 29.67 in 10.0 mi NNW 15.0 mph - N/A   Overcast
8:54 PM 32.0 °F 19.8 °F 27.0 °F 82% 29.62 in 10.0 mi North 20.7 mph 27.6 mph N/A   Overcast
9:54 PM 30.9 °F 18.7 °F 26.1 °F 82% 29.68 in 9.0 mi North 19.6 mph 25.3 mph N/A   Overcast
10:54 PM 30.0 °F 16.0 °F 25.0 °F 82% 29.65 in 9.0 mi North 25.3 mph 32.2 mph N/A   Overcast
11:54 PM 28.9 °F 15.4 °F 23.0 °F 78% 29.66 in 10.0 mi North 21.9 mph 27.6 mph N/A   Overcast